Tracking 17143 objects as of 24-May-2015
HD Live streaming from Space Station

COSMOS 2318 (GLONASS)

Track COSMOS 2318 (GLONASS) now!
COSMOS 2318 (GLONASS) is classified as:


NORAD ID: 23622
Int'l Code: 1995-037C
Perigee: 19,078.1 km
Apogee: 19,196.1 km
Inclination: 66.6 °
Period: 675.7 minutes
Semi major axis: 25508 km
RCS: 3.5243 m2 (large)
Launch date: July 24, 1995
Source: Commonwealth of Independent States (former USSR) (CIS)
SV:
Your satellite tracking list
Your tracking list is empty





NASA's NSSDC Master Catalog

Two Line Element Set (TLE):
1 23622U 95037C   15142.37206294 -.00000051  00000-0  00000+0 0  9991
2 23622 066.6246 334.8909 0023128 111.6455 243.6728 02.13101350154314

Source of the keplerian elements: AFSPC

N2YO: 350